TimeEST,TemperatureF,Dew PointF,Humidity,Sea Level PressureIn,VisibilityMPH,Wind Direction,Wind SpeedMPH,Gust SpeedMPH,PrecipitationIn,Events,Conditions,WindDirDegrees,DateUTC
12:56 AM,36.0,34.0,93,29.91,9.0,WSW,4.6,-,N/A,,Overcast,240,2013-01-17 05:56:00
1:56 AM,37.0,34.0,89,29.91,9.0,SSW,4.6,-,N/A,,Overcast,210,2013-01-17 06:56:00
2:56 AM,36.0,34.0,93,29.92,8.0,SW,4.6,-,N/A,,Overcast,230,2013-01-17 07:56:00
3:56 AM,36.0,33.1,89,29.91,10.0,SSW,3.5,-,N/A,,Mostly Cloudy,210,2013-01-17 08:56:00
4:56 AM,35.1,32.0,89,29.91,10.0,SW,3.5,-,N/A,,Overcast,230,2013-01-17 09:56:00
5:56 AM,35.1,32.0,89,29.92,10.0,West,5.8,-,N/A,,Overcast,260,2013-01-17 10:56:00
6:56 AM,35.1,30.9,85,29.96,10.0,WSW,5.8,-,N/A,,Mostly Cloudy,240,2013-01-17 11:56:00
7:56 AM,37.0,30.0,76,29.99,10.0,WNW,5.8,-,N/A,,Mostly Cloudy,290,2013-01-17 12:56:00
8:56 AM,39.0,28.0,65,30.02,10.0,WNW,12.7,-,N/A,,Mostly Cloudy,300,2013-01-17 13:56:00
9:56 AM,39.9,27.0,60,30.03,10.0,NW,16.1,-,N/A,,Overcast,310,2013-01-17 14:56:00
10:56 AM,41.0,26.1,55,30.03,10.0,NW,12.7,20.7,N/A,,Overcast,320,2013-01-17 15:56:00
11:56 AM,42.1,26.1,53,30.03,10.0,NW,13.8,-,N/A,,Mostly Cloudy,310,2013-01-17 16:56:00
12:56 PM,42.1,26.1,53,30.02,10.0,NW,11.5,19.6,N/A,,Mostly Cloudy,320,2013-01-17 17:56:00
1:56 PM,43.0,25.0,49,30.03,10.0,NW,11.5,-,N/A,,Overcast,310,2013-01-17 18:56:00
2:56 PM,42.1,23.0,47,30.01,10.0,NW,16.1,20.7,N/A,,Overcast,320,2013-01-17 19:56:00
3:56 PM,42.1,25.0,51,30.04,10.0,NW,8.1,-,N/A,,Overcast,320,2013-01-17 20:56:00
4:56 PM,41.0,25.0,53,30.06,10.0,NW,5.8,-,N/A,,Overcast,310,2013-01-17 21:56:00
5:56 PM,39.9,26.1,58,30.06,10.0,WNW,5.8,-,N/A,,Overcast,300,2013-01-17 22:56:00
6:56 PM,39.9,26.1,58,30.06,10.0,NW,5.8,-,N/A,,Overcast,310,2013-01-17 23:56:00
7:56 PM,39.0,27.0,62,30.06,10.0,NNW,6.9,-,N/A,,Overcast,330,2013-01-18 00:56:00
8:56 PM,39.0,27.0,62,30.04,10.0,North,3.5,-,N/A,,Overcast,360,2013-01-18 01:56:00
9:40 PM,37.4,26.6,65,30.05,10.0,NNE,15.0,19.6,N/A,,Overcast,30,2013-01-18 02:40:00
9:56 PM,36.0,25.0,64,30.04,10.0,NE,12.7,-,N/A,,Overcast,40,2013-01-18 02:56:00
10:53 PM,35.6,21.2,56,30.03,10.0,NNE,11.5,-,N/A,,Overcast,20,2013-01-18 03:53:00
10:56 PM,35.1,21.0,57,30.04,10.0,NNE,12.7,-,N/A,,Overcast,30,2013-01-18 03:56:00
11:56 PM,34.0,21.0,59,30.02,10.0,North,10.4,-,N/A,,Overcast,10,2013-01-18 04:56:00